Flag Weather past 2 weeks in Leutkirch im Allgäu, Baden-Württemberg, Germany

Now
37 °F

Low clouds.


Feels Like: 37 °F
Forecast: 34 / 48 °F
Wind: 2 mph from Southeast

Location: Kempten

Current Time: Nov 28, 2014 at 3:03:52 AM

Latest Report: Nov 28, 2014 at 2:00 AM


Visibility: 0 mi

Pressure: 29.86 "Hg

Humidity: 100%

Dew point: 37 °F

Location of Leutkirch im AllgäuLocation

Historic Weather in Leutkirch im Allgäu — Graph

°F

Leutkirch im Allgäu temperature yesterday

Maximum temperature yesterday: 44 °F (at 2:00 PM)
Minimum temperature yesterday: 36 °F (at 9:00 AM)
Average temperature yesterday: 40 °F

Past Weeks' High & Low Weather Summary

 TemperatureHumidityPressure
High60 °F (Nov 23, 2:00 PM)100% (Nov 15, 8:00 AM)30.37 "Hg (Nov 15, 8:00 AM)
Low28 °F (Nov 20, 5:00 AM)46% (Nov 23, 2:00 PM)29.53 "Hg (Nov 15, 11:00 PM)
Average42 °F90%29.99 "Hg
* Reported Nov 13 2:00 AM — Nov 28 2:00 AM, Leutkirch im Allgäu, Weather by CustomWeather, © 2014

Note: Actual official high and low records may vary slightly from our data, if they occured in-between our weather recording intervals... More about our weather records

Advertising

Leutkirch im Allgäu weather history for previous 24 hours

 ConditionsComfort  
Time TempWeatherWind HumidityBarometerVisibility
2:00 AM
Nov 28
37 °FLow clouds.2 mph100%29.86 "Hg0 mi
1:00 AM38 °FLow clouds.1 mph100%29.85 "Hg0 mi
12:00 AM38 °FLow clouds.2 mph99%29.85 "Hg1 mi
11:00 PM
Nov 27
40 °FLow clouds.1 mph99%29.84 "Hg0 mi
10:00 PM41 °FLow clouds.1 mph99%29.85 "Hg0 mi
9:00 PM41 °FLow clouds.1 mph98%29.84 "Hg1 mi
8:00 PM41 °FFog.1 mph97%29.83 "Hg3 mi
7:00 PM41 °FLow clouds.No wind95%29.82 "Hg6 mi
6:00 PM41 °FLow clouds.2 mph95%29.82 "Hg6 mi
5:00 PM41 °FLow clouds.2 mph94%29.81 "Hg11 mi
4:00 PM42 °FLow clouds.1 mph91%29.80 "Hg11 mi
3:00 PM43 °FPartly sunny.1 mph87%29.79 "Hg22 mi
2:00 PM44 °FScattered clouds.2 mph85%29.79 "Hg22 mi
1:00 PM42 °FOvercast.1 mph88%29.80 "Hg28 mi
12:00 PM41 °FScattered clouds.2 mph93%29.82 "Hg12 mi
11:00 AM38 °FScattered clouds.1 mph95%29.84 "Hg12 mi
9:00 AM36 °FLow clouds.2 mph100%29.87 "Hg0 mi
8:00 AM37 °FLow clouds.1 mph100%29.86 "Hg0 mi
7:00 AM37 °FLow clouds.2 mph100%29.86 "Hg0 mi
6:00 AM39 °FLow clouds.1 mph100%29.87 "Hg0 mi
5:00 AM40 °FLow clouds.1 mph100%29.88 "Hg0 mi
3:00 AM40 °FLow clouds.1 mph94%29.91 "Hg9 mi
Weather by CustomWeather, © 2014

See weather overviewHow to use our weather pages